[TLELIST] Archives

 

[list_settings.list_name] Current TLEs

June 6th 2014 PST

HST 1 20580U 90037B 14156.12909361 .00001226 00000-0 71496-4 0 276 2 20580 028.4701 116.3944 0003034 152.2805 304.7170 15.05415602122893 ISS (ZARYA) 1 25544U 98067A 14157.28602881 .00003950 00000-0 75641-4 0 4330 2 25544 051.6464 153.6252 0004289 074.5934 058.8514 15.50579739889633 CXO 1 25867U 99040B 14159.95950031 -.00000417 00000-0 00000+0 0 265 2 25867 076.8619 321.0716 8125776 274.2671 000.0348 00.37802258 11880 ____________________________________________________________________ These 2-Line ...Continue Reading

[list_settings.list_name] Current TLEs

June 5th 2014 PST

HST 1 20580U 90037B 14156.12909361 .00001226 00000-0 71496-4 0 276 2 20580 028.4701 116.3944 0003034 152.2805 304.7170 15.05415602122893 ISS (ZARYA) 1 25544U 98067A 14156.45209976 .00003839 00000-0 73767-4 0 4272 2 25544 051.6467 157.7595 0004315 071.2101 084.1047 15.50572028889504 CXO 1 25867U 99040B 14157.31512749 -.00000422 00000-0 00000+0 0 269 2 25867 076.8556 321.2056 8127155 274.2875 000.1073 00.37801083 11878 ____________________________________________________________________ These 2-Line ...Continue Reading

[list_settings.list_name] Current TLEs

June 4th 2014 PST

HST 1 20580U 90037B 14154.34299943 .00001202 00000-0 69897-4 0 261 2 20580 028.4698 128.1348 0003110 132.8155 345.3496 15.05411186122631 ISS (ZARYA) 1 25544U 98067A 14155.42088887 .00003391 00000-0 66111-4 0 4193 2 25544 051.6467 162.8730 0004216 069.3142 085.9326 15.50561732889346 CXO 1 25867U 99040B 14157.31512749 -.00000422 00000-0 00000+0 0 269 2 25867 076.8556 321.2056 8127155 274.2875 000.1073 00.37801083 11878 ____________________________________________________________________ These 2-Line ...Continue Reading

[list_settings.list_name] Current TLEs

June 3rd 2014 PST

HST 1 20580U 90037B 14153.14294876 .00001207 00000-0 70273-4 0 252 2 20580 028.4697 136.0232 0003167 119.8701 321.8003 15.05409149122442 ISS (ZARYA) 1 25544U 98067A 14154.31438986 .00002615 00000-0 52799-4 0 4127 2 25544 051.6470 168.3592 0004245 064.3349 030.3378 15.50550275889175 CXO 1 25867U 99040B 14154.66955132 -.00000422 00000-0 00000+0 0 250 2 25867 076.8499 321.3199 8127999 274.3307 359.9481 00.37796848 11869 ____________________________________________________________________ These 2-Line ...Continue Reading

[list_settings.list_name] Current TLEs

June 2nd 2014 PST

HST 1 20580U 90037B 14153.14294876 .00001207 00000-0 70273-4 0 252 2 20580 028.4697 136.0232 0003167 119.8701 321.8003 15.05409149122442 ISS (ZARYA) 1 25544U 98067A 14153.48683091 .00002641 00000-0 53255-4 0 4074 2 25544 051.6470 172.4620 0004109 062.8808 089.3295 15.50545032889048 CXO 1 25867U 99040B 14154.66955132 -.00000422 00000-0 00000+0 0 250 2 25867 076.8499 321.3199 8127999 274.3307 359.9481 00.37796848 11869 ____________________________________________________________________ These 2-Line ...Continue Reading

[list_settings.list_name] Current TLEs

June 1st 2014 PST

HST 1 20580U 90037B 14151.42745822 .00001169 00000-0 67652-4 0 246 2 20580 028.4694 147.2999 0003227 102.4090 023.8492 15.05406920122196 ISS (ZARYA) 1 25544U 98067A 14152.45425391 .00002893 00000-0 57594-4 0 4010 2 25544 051.6470 177.5827 0004114 059.4760 085.1333 15.50539494888881 CXO 1 25867U 99040B 14152.02436843 -.00000447 00000-0 00000+0 0 247 2 25867 076.8406 321.4150 8130869 274.3901 359.8030 00.37795786 11853 ____________________________________________________________________ These 2-Line ...Continue Reading

[list_settings.list_name] Current TLEs

May 31st 2014 PST

HST 1 20580U 90037B 14150.15683714 .00001059 00000-0 60158-4 0 237 2 20580 028.4692 155.6524 0003283 089.0609 337.5210 15.05403691121991 ISS (ZARYA) 1 25544U 98067A 14151.47661569 .00003929 00000-0 75409-4 0 3947 2 25544 051.6473 182.4298 0004138 053.2082 030.6877 15.50535211888731 CXO 1 25867U 99040B 14152.02436843 -.00000447 00000-0 00000+0 0 247 2 25867 076.8406 321.4150 8130869 274.3901 359.8030 00.37795786 11853 ____________________________________________________________________ These 2-Line ...Continue Reading

[list_settings.list_name] Current TLEs

May 30th 2014 PST

HST 1 20580U 90037B 14150.15683714 .00001059 00000-0 60158-4 0 237 2 20580 028.4692 155.6524 0003283 089.0609 337.5210 15.05403691121991 ISS (ZARYA) 1 25544U 98067A 14150.39047172 .00002663 00000-0 53676-4 0 3873 2 25544 051.6465 187.8145 0003948 051.3731 085.7625 15.50524569888567 CXO 1 25867U 99040B 14152.02436843 -.00000447 00000-0 00000+0 0 247 2 25867 076.8406 321.4150 8130869 274.3901 359.8030 00.37795786 11853 ____________________________________________________________________ These 2-Line ...Continue Reading

[list_settings.list_name] Current TLEs

May 29th 2014 PST

HST 1 20580U 90037B 14147.51630336 .00001154 00000-0 66674-4 0 229 2 20580 028.4688 173.0101 0003338 063.2416 064.8356 15.05400702121601 ISS (ZARYA) 1 25544U 98067A 14149.42186566 .00004816 00000-0 90686-4 0 3803 2 25544 051.6488 192.6203 0003870 045.4347 081.4806 15.50514268888415 CXO 1 25867U 99040B 14149.38048415 -.00000533 00000-0 00000+0 0 231 2 25867 076.8264 321.5342 8135329 274.4371 359.8441 00.37800091 11848 ____________________________________________________________________ These 2-Line ...Continue Reading

[list_settings.list_name] Current TLEs

May 28th 2014 PST

HST 1 20580U 90037B 14147.51630336 .00001154 00000-0 66674-4 0 229 2 20580 028.4688 173.0101 0003338 063.2416 064.8356 15.05400702121601 ISS (ZARYA) 1 25544U 98067A 14148.25353351 .00006506 00000-0 11951-3 0 3738 2 25544 051.6471 198.4055 0003968 047.6724 033.3515 15.50569135888233 CXO 1 25867U 99040B 14149.38048415 -.00000533 00000-0 00000+0 0 231 2 25867 076.8264 321.5342 8135329 274.4371 359.8441 00.37800091 11848 ____________________________________________________________________ These 2-Line ...Continue Reading
  • This mailing list is a public mailing list - anyone may join or leave, at any time.
  • This mailing list is announce-only.

International Space Station (ISS) / Hubble Space Telescope (HST) / Chandra X-Ray Observatory Orbital Data via EMAIL

Privacy Policy:

Private list